Lincoln, IL

4:03 PM CDT on May 29, 2017 (GMT -0500)
Lincoln

Weather History for KAAA - December, 2012

Change the Weather History Date:

Friday, December 21, 2012

  Actual Average (KSPI) Record (KSPI)
Temperature  
Mean Temperature 24 °F -  
Max Temperature 30 °F 35 °F 64 °F (2015)
Min Temperature 18 °F 19 °F -17 °F (1973)
Degree Days  
Heating Degree Days 41    
Moisture  
Dew Point 16 °F    
Average Humidity 75    
Maximum Humidity 83    
Minimum Humidity 59    
Precipitation  
Precipitation 0.00 in - - ()
Sea Level Pressure  
Sea Level Pressure 30.08 in    
Wind  
Wind Speed 12 mph (WNW)    
Max Wind Speed 17 mph    
Max Gust Speed 36 mph    
Visibility 10 miles    
Events      
Averages and records for this station are not official NWS values.
T = Trace of Precipitation, MM = Missing Value Source: NWS Daily Summary

Daily Weather History Graph

Daily Weather History Graph

Search for Another Location

Airport or City:

Trip Planner

Search our weather history database for the weather conditions in past years. The results will help you decide how hot, cold, wet, or windy it might be!

Date:

Astronomy

Dec. 21, 2012 Rise Set
Actual Time 7:16 AM CST 4:35 PM CST
Civil Twilight 6:45 AM CST 5:05 PM CST
Nautical Twilight 6:11 AM CST 5:39 PM CST
Astronomical Twilight 5:38 AM CST 6:13 PM CST
Moon 12:22 PM CST (12/21) 1:02 AM CST (12/21)
Length of Visible Light 10h 20m
Length of Day
9h 18m
Waxing Gibbous, 65% of the Moon is Illuminated
Dec 21
Waxing Gibbous
Dec 28
Full
Jan 4
Last Quarter
Jan 11
New
Jan 18
First Quarter

Hourly Weather History & Observations

Time (CST) Temp. Windchill Dew Point Humidity Pressure Visibility Wind Dir Wind Speed Gust Speed Precip Events Conditions
12:15 AM 24.8 °F 12.9 °F 20.1 °F 82% 29.79 in 10.0 mi WNW 13.8 mph 35.7 mph N/A   Overcast
12:35 AM 24.4 °F 13.0 °F 19.9 °F 83% 29.81 in 10.0 mi WNW 12.7 mph 25.3 mph N/A   Overcast
12:55 AM 23.9 °F 10.8 °F 19.4 °F 83% 29.82 in 10.0 mi WNW 16.1 mph 28.8 mph N/A   Overcast
1:15 AM 23.9 °F 11.7 °F 19.2 °F 82% 29.83 in 10.0 mi West 13.8 mph 26.5 mph N/A   Overcast
1:35 AM 23.7 °F 11.5 °F 18.9 °F 82% 29.84 in 10.0 mi WNW 13.8 mph 25.3 mph N/A   Overcast
1:55 AM 23.5 °F 11.3 °F 18.5 °F 81% 29.86 in 10.0 mi WNW 13.8 mph 26.5 mph N/A   Overcast
2:15 AM 23.0 °F 12.4 °F 18.1 °F 82% 29.86 in 10.0 mi WNW 10.4 mph 25.3 mph N/A   Overcast
2:35 AM 22.6 °F 8.7 °F 17.6 °F 81% 29.88 in 10.0 mi WNW 17.3 mph 28.8 mph N/A   Mostly Cloudy
2:55 AM 22.1 °F 9.5 °F 17.4 °F 82% 29.89 in 10.0 mi WNW 13.8 mph 24.2 mph N/A   Mostly Cloudy
3:15 AM 21.7 °F 10.2 °F 16.7 °F 81% 29.90 in 10.0 mi WNW 11.5 mph 23.0 mph N/A   Scattered Clouds
3:35 AM 21.0 °F 8.6 °F 16.3 °F 82% 29.91 in 10.0 mi WNW 12.7 mph 25.3 mph N/A   Scattered Clouds
3:55 AM 20.3 °F 7.2 °F 15.8 °F 83% 29.91 in 10.0 mi WNW 13.8 mph 24.2 mph N/A   Scattered Clouds
4:15 AM 20.1 °F 7.5 °F 15.4 °F 82% 29.92 in 10.0 mi WNW 12.7 mph 25.3 mph N/A   Scattered Clouds
4:35 AM 19.9 °F 7.9 °F 15.3 °F 82% 29.93 in 10.0 mi WNW 11.5 mph 23.0 mph N/A   Clear
4:55 AM 19.4 °F 7.9 °F 14.7 °F 82% 29.94 in 10.0 mi WNW 10.4 mph 21.9 mph N/A   Clear
5:15 AM 19.4 °F 7.9 °F 14.9 °F 83% 29.94 in 10.0 mi WNW 10.4 mph 20.7 mph N/A   Clear
5:35 AM 19.2 °F 7.0 °F 14.4 °F 81% 29.95 in 10.0 mi WNW 11.5 mph 23.0 mph N/A   Clear
5:55 AM 18.9 °F 8.0 °F 14.0 °F 81% 29.96 in 10.0 mi WNW 9.2 mph 23.0 mph N/A   Clear
6:15 AM 18.5 °F 4.9 °F 14.0 °F 83% 29.97 in 10.0 mi WNW 13.8 mph 23.0 mph N/A   Clear
6:35 AM 18.5 °F 6.8 °F 14.0 °F 83% 29.98 in 10.0 mi WNW 10.4 mph 19.6 mph N/A   Clear
6:55 AM 18.5 °F 4.9 °F 14.0 °F 83% 30.00 in 10.0 mi WNW 13.8 mph 23.0 mph N/A   Clear
7:15 AM 18.5 °F 4.9 °F 13.8 °F 82% 30.02 in 10.0 mi WNW 13.8 mph 25.3 mph N/A   Clear
7:35 AM 18.1 °F 7.1 °F 13.6 °F 83% 30.02 in 10.0 mi NW 9.2 mph 18.4 mph N/A   Clear
7:55 AM 18.5 °F 7.5 °F 13.8 °F 82% 30.03 in 10.0 mi WNW 9.2 mph 21.9 mph N/A   Clear
8:15 AM 19.4 °F 6.6 °F 14.0 °F 80% 30.03 in 10.0 mi West 12.7 mph 24.2 mph N/A   Clear
8:35 AM 20.3 °F 7.7 °F 14.4 °F 78% 30.04 in 10.0 mi WNW 12.7 mph 24.2 mph N/A   Clear
8:55 AM 20.8 °F 7.9 °F 14.2 °F 75% 30.05 in 10.0 mi WNW 13.8 mph 26.5 mph N/A   Clear
9:15 AM 21.6 °F 9.3 °F 14.9 °F 76% 30.06 in 10.0 mi WNW 12.7 mph 25.3 mph N/A   Clear
9:35 AM 22.3 °F 9.7 °F 14.9 °F 73% 30.07 in 10.0 mi WNW 13.8 mph 27.6 mph N/A   Clear
9:55 AM 23.4 °F 11.6 °F 15.4 °F 72% 30.08 in 10.0 mi WNW 12.7 mph 20.7 mph N/A   Clear
10:15 AM 24.1 °F 12.0 °F 15.8 °F 71% 30.09 in 10.0 mi West 13.8 mph 23.0 mph N/A   Clear
10:35 AM 24.4 °F 11.9 °F 15.6 °F 69% 30.09 in 10.0 mi WNW 15.0 mph 25.3 mph N/A   Clear
10:55 AM 25.3 °F 13.1 °F 15.6 °F 67% 30.09 in 10.0 mi WNW 15.0 mph 26.5 mph N/A   Clear
11:15 AM 25.7 °F 14.0 °F 15.8 °F 66% 30.10 in 10.0 mi WNW 13.8 mph 25.3 mph N/A   Clear
11:35 AM 26.2 °F 13.8 °F 15.6 °F 64% 30.10 in 10.0 mi WNW 16.1 mph 26.5 mph N/A   Clear
11:55 AM 27.1 °F 16.4 °F 16.9 °F 65% 30.10 in 10.0 mi WNW 12.7 mph 25.3 mph N/A   Clear
12:15 PM 28.0 °F 17.0 °F 17.2 °F 64% 30.10 in 10.0 mi WNW 13.8 mph 27.6 mph N/A   Clear
12:35 PM 28.6 °F 18.2 °F 16.9 °F 62% 30.10 in 10.0 mi WNW 12.7 mph 25.3 mph N/A   Clear
12:55 PM 29.3 °F 18.2 °F 17.2 °F 61% 30.10 in 10.0 mi WNW 15.0 mph 24.2 mph N/A   Clear
1:15 PM 29.8 °F 19.8 °F 18.1 °F 62% 30.10 in 10.0 mi WNW 12.7 mph 25.3 mph N/A   Clear
1:35 PM 29.8 °F 21.5 °F 17.2 °F 59% 30.11 in 10.0 mi WNW 9.2 mph 20.7 mph N/A   Clear
1:55 PM 29.8 °F 22.2 °F 17.8 °F 61% 30.12 in 10.0 mi WNW 8.1 mph 23.0 mph N/A   Clear
2:15 PM 30.2 °F 21.3 °F 18.7 °F 62% 30.12 in 10.0 mi WNW 10.4 mph 21.9 mph N/A   Clear
2:35 PM 30.2 °F 19.8 °F 18.1 °F 61% 30.12 in 10.0 mi WNW 13.8 mph 24.2 mph N/A   Clear
2:55 PM 29.5 °F 18.8 °F 18.5 °F 64% 30.13 in 10.0 mi WNW 13.8 mph 24.2 mph N/A   Clear
3:15 PM 29.3 °F 20.8 °F 18.7 °F 65% 30.14 in 10.0 mi WNW 9.2 mph 19.6 mph N/A   Clear
3:35 PM 28.9 °F 19.8 °F 18.1 °F 64% 30.14 in 10.0 mi West 10.4 mph 20.7 mph N/A   Clear
3:55 PM 27.5 °F 16.8 °F 17.8 °F 67% 30.15 in 10.0 mi West 12.7 mph 21.9 mph N/A   Clear
4:15 PM 27.1 °F 18.2 °F 17.6 °F 67% 30.16 in 10.0 mi WNW 9.2 mph 19.6 mph N/A   Clear
4:35 PM 26.4 °F 18.9 °F 17.6 °F 69% 30.17 in 10.0 mi WNW 6.9 mph - N/A   Clear
4:55 PM 25.7 °F 15.1 °F 17.6 °F 71% 30.18 in 10.0 mi WNW 11.5 mph 18.4 mph N/A   Clear
5:15 PM 25.2 °F 17.3 °F 17.6 °F 73% 30.19 in 10.0 mi WNW 6.9 mph - N/A   Clear
5:35 PM 24.8 °F 16.9 °F 17.4 °F 74% 30.20 in 10.0 mi NW 6.9 mph 16.1 mph N/A   Clear
5:55 PM 24.4 °F 15.6 °F 16.9 °F 73% 30.20 in 10.0 mi West 8.1 mph - N/A   Clear
6:15 PM 23.9 °F 15.8 °F 16.7 °F 74% 30.21 in 10.0 mi WNW 6.9 mph - N/A   Clear
6:35 PM 23.7 °F 15.6 °F 16.5 °F 74% 30.22 in 10.0 mi West 6.9 mph - N/A   Clear
6:55 PM 23.2 °F 14.1 °F 16.5 °F 76% 30.23 in 10.0 mi WNW 8.1 mph - N/A   Clear
7:15 PM 22.8 °F 14.5 °F 16.3 °F 76% 30.24 in 10.0 mi WNW 6.9 mph - N/A   Clear
7:35 PM 22.5 °F 16.3 °F 16.3 °F 77% 30.23 in 10.0 mi WNW 4.6 mph - N/A   Clear
7:55 PM 21.9 °F 17.2 °F 16.2 °F 78% 30.24 in 10.0 mi WNW 3.5 mph - N/A   Clear
8:15 PM 21.6 °F 15.3 °F 15.8 °F 78% 30.24 in 10.0 mi WNW 4.6 mph - N/A   Clear
8:35 PM 21.0 °F 16.2 °F 15.6 °F 80% 30.24 in 10.0 mi WNW 3.5 mph - N/A   Clear
8:55 PM 20.8 °F - 15.4 °F 80% 30.25 in 10.0 mi Calm Calm - N/A   Clear
9:15 PM 20.8 °F 13.2 °F 15.1 °F 78% 30.24 in 10.0 mi WNW 5.8 mph - N/A   Clear
9:35 PM 20.8 °F 14.4 °F 14.9 °F 78% 30.25 in 10.0 mi WNW 4.6 mph - N/A   Clear
9:55 PM 20.7 °F 14.2 °F 14.9 °F 78% 30.26 in 10.0 mi WNW 4.6 mph - N/A   Clear
10:15 PM 20.3 °F 15.4 °F 14.7 °F 79% 30.26 in 10.0 mi WNW 3.5 mph - N/A   Clear
10:35 PM 20.1 °F 13.6 °F 14.5 °F 79% 30.26 in 10.0 mi WNW 4.6 mph - N/A   Clear
10:55 PM 19.8 °F 13.2 °F 14.4 °F 80% 30.26 in 10.0 mi West 4.6 mph - N/A   Clear
11:15 PM 19.4 °F 12.8 °F 14.4 °F 81% 30.26 in 10.0 mi WNW 4.6 mph - N/A   Clear
11:35 PM 19.4 °F 14.3 °F 14.4 °F 81% 30.25 in 10.0 mi WNW 3.5 mph - N/A   Clear
11:55 PM 18.9 °F 12.1 °F 14.0 °F 81% 30.26 in 10.0 mi WNW 4.6 mph - N/A   Clear